contact:dominique.lefevre@mio.osupytheas.fr, maurice.libes@osupytheas.fr, didier.mallarino@osupytheas.fr
Project:EMSO http://www.emso-fr.org/EMSO-France
Depth: 2436.0 m
Title:EMSO Ligure Ouest : Data MII capteur MICROCAT
DateTime_Computer,Latitude,Longitude,Temperature,Conductivity,Pressure,DateTime_Instrument
DateTime_Computer,Latitude,Longitude,degC,S m-1,dbar,DateTime_Instrument
2020-05-03T00:02:24Z,42.805,6.029,13.2982,4.60023,2469.993,2020-5-03T02:03:05Z
2020-05-03T00:05:27Z,42.805,6.029,13.2983,4.60015,2470.053,2020-5-03T02:06:08Z
2020-05-03T00:08:31Z,42.805,6.029,13.2983,4.60011,2470.017,2020-5-03T02:09:12Z
2020-05-03T00:11:34Z,42.805,6.029,13.3004,4.60008,2470.03,2020-5-03T02:12:15Z
2020-05-03T00:14:37Z,42.805,6.029,13.2986,4.60032,2469.993,2020-5-03T02:15:18Z
2020-05-03T00:17:41Z,42.805,6.029,13.2982,4.60011,2470.04,2020-5-03T02:18:22Z
2020-05-03T00:20:44Z,42.805,6.029,13.2996,4.60016,2470.03,2020-5-03T02:21:25Z
2020-05-03T00:23:47Z,42.805,6.029,13.2993,4.60029,2470.003,2020-5-03T02:24:28Z
2020-05-03T00:26:50Z,42.805,6.029,13.3022,4.60031,2470.017,2020-5-03T02:27:31Z
2020-05-03T00:29:54Z,42.805,6.029,13.3006,4.60041,2470.007,2020-5-03T02:30:35Z
2020-05-03T00:32:57Z,42.805,6.029,13.2992,4.60032,2470.053,2020-5-03T02:33:38Z
2020-05-03T00:36:00Z,42.805,6.029,13.2990,4.60030,2470.03,2020-5-03T02:36:41Z
2020-05-03T00:39:03Z,42.805,6.029,13.2994,4.60050,2469.993,2020-5-03T02:39:44Z
2020-05-03T00:42:07Z,42.805,6.029,13.3003,4.60046,2470.04,2020-5-03T02:42:47Z
2020-05-03T00:45:10Z,42.805,6.029,13.2994,4.60031,2470.017,2020-5-03T02:45:51Z
2020-05-03T00:48:13Z,42.805,6.029,13.3004,4.60021,2470.04,2020-5-03T02:48:54Z
2020-05-03T00:51:16Z,42.805,6.029,13.3000,4.60020,2470.03,2020-5-03T02:51:57Z
2020-05-03T00:54:20Z,42.805,6.029,13.2994,4.60031,2470.053,2020-5-03T02:55:01Z
2020-05-03T00:57:23Z,42.805,6.029,13.2993,4.60016,2470.077,2020-5-03T02:58:04Z
2020-05-03T01:00:26Z,42.805,6.029,13.2991,4.60026,2470.053,2020-5-03T03:01:07Z
2020-05-03T01:03:30Z,42.805,6.029,13.2998,4.60015,2470.077,2020-5-03T03:04:11Z
2020-05-03T01:06:33Z,42.805,6.029,13.2991,4.60025,2470.077,2020-5-03T03:07:14Z
2020-05-03T01:09:36Z,42.805,6.029,13.2980,4.60003,2470.077,2020-5-03T03:10:17Z
2020-05-03T01:12:39Z,42.805,6.029,13.2983,4.59995,2470.077,2020-5-03T03:13:20Z
2020-05-03T01:15:43Z,42.805,6.029,13.2978,4.60000,2470.017,2020-5-03T03:16:24Z
2020-05-03T01:18:46Z,42.805,6.029,13.2978,4.59996,2470.087,2020-5-03T03:19:27Z
2020-05-03T01:21:49Z,42.805,6.029,13.2983,4.60001,2470.077,2020-5-03T03:22:30Z
2020-05-03T01:24:52Z,42.805,6.029,13.2982,4.60007,2470.053,2020-5-03T03:25:33Z
2020-05-03T01:27:56Z,42.805,6.029,13.2975,4.60052,2470.063,2020-5-03T03:28:37Z
2020-05-03T01:30:59Z,42.805,6.029,13.3002,4.60036,2470.063,2020-5-03T03:31:40Z
2020-05-03T01:34:02Z,42.805,6.029,13.2995,4.60036,2470.04,2020-5-03T03:34:43Z
2020-05-03T01:37:06Z,42.805,6.029,13.3005,4.60014,2470.063,2020-5-03T03:37:47Z
2020-05-03T01:40:09Z,42.805,6.029,13.2982,4.60058,2470.063,2020-5-03T03:40:50Z
2020-05-03T01:43:12Z,42.805,6.029,13.2988,4.60033,2470.04,2020-5-03T03:43:53Z
2020-05-03T01:46:15Z,42.805,6.029,13.2975,4.60007,2470.087,2020-5-03T03:46:56Z
2020-05-03T01:49:19Z,42.805,6.029,13.2986,4.60009,2470.1,2020-5-03T03:50:00Z
2020-05-03T01:52:22Z,42.805,6.029,13.2974,4.59999,2470.087,2020-5-03T03:53:03Z
2020-05-03T01:55:25Z,42.805,6.029,13.2983,4.60030,2470.11,2020-5-03T03:56:06Z
2020-05-03T01:58:28Z,42.805,6.029,13.2998,4.60016,2470.077,2020-5-03T03:59:09Z
2020-05-03T02:01:31Z,42.805,6.029,13.2990,4.60036,2470.124,2020-5-03T04:02:12Z
2020-05-03T02:04:35Z,42.805,6.029,13.2972,4.60004,2470.087,2020-5-03T04:05:16Z
2020-05-03T02:07:38Z,42.805,6.029,13.2986,4.60037,2470.1,2020-5-03T04:08:19Z
2020-05-03T02:10:41Z,42.805,6.029,13.2988,4.60029,2470.124,2020-5-03T04:11:22Z
2020-05-03T02:13:44Z,42.805,6.029,13.2984,4.60033,2470.11,2020-5-03T04:14:25Z
2020-05-03T02:16:48Z,42.805,6.029,13.2987,4.59995,2470.087,2020-5-03T04:17:28Z
2020-05-03T02:19:51Z,42.805,6.029,13.2980,4.59998,2470.11,2020-5-03T04:20:32Z
2020-05-03T02:22:54Z,42.805,6.029,13.2995,4.60019,2470.133,2020-5-03T04:23:35Z
2020-05-03T02:25:57Z,42.805,6.029,13.2986,4.60019,2470.133,2020-5-03T04:26:38Z
2020-05-03T02:29:01Z,42.805,6.029,13.2987,4.60026,2470.133,2020-5-03T04:29:42Z
2020-05-03T02:32:04Z,42.805,6.029,13.2976,4.60016,2470.11,2020-5-03T04:32:45Z
2020-05-03T02:35:07Z,42.805,6.029,13.2984,4.60003,2470.11,2020-5-03T04:35:48Z
2020-05-03T02:38:10Z,42.805,6.029,13.2982,4.60023,2470.133,2020-5-03T04:38:51Z
2020-05-03T02:41:14Z,42.805,6.029,13.2983,4.60039,2470.124,2020-5-03T04:41:55Z
2020-05-03T02:44:17Z,42.805,6.029,13.2980,4.60001,2470.11,2020-5-03T04:44:58Z
2020-05-03T02:47:20Z,42.805,6.029,13.2983,4.60019,2470.124,2020-5-03T04:48:01Z
2020-05-03T02:50:23Z,42.805,6.029,13.2990,4.60021,2470.1,2020-5-03T04:51:04Z
2020-05-03T02:53:26Z,42.805,6.029,13.2985,4.60015,2470.133,2020-5-03T04:54:07Z
2020-05-03T02:56:30Z,42.805,6.029,13.2997,4.60030,2470.133,2020-5-03T04:57:11Z
2020-05-03T02:59:33Z,42.805,6.029,13.2998,4.60028,2470.11,2020-5-03T05:00:14Z
2020-05-03T03:02:36Z,42.805,6.029,13.2988,4.60025,2470.133,2020-5-03T05:03:17Z
2020-05-03T03:05:39Z,42.805,6.029,13.2986,4.60011,2470.124,2020-5-03T05:06:20Z
2020-05-03T03:08:43Z,42.805,6.029,13.2983,4.60021,2470.133,2020-5-03T05:09:24Z
2020-05-03T03:11:46Z,42.805,6.029,13.2988,4.60033,2470.133,2020-5-03T05:12:27Z
2020-05-03T03:14:49Z,42.805,6.029,13.2996,4.60029,2470.1,2020-5-03T05:15:30Z
2020-05-03T03:17:52Z,42.805,6.029,13.2985,4.60023,2470.147,2020-5-03T05:18:33Z
2020-05-03T03:20:56Z,42.805,6.029,13.2980,4.60013,2470.087,2020-5-03T05:21:37Z
2020-05-03T03:23:59Z,42.805,6.029,13.2977,4.60014,2470.124,2020-5-03T05:24:40Z
2020-05-03T03:27:02Z,42.805,6.029,13.2982,4.60021,2470.147,2020-5-03T05:27:43Z
2020-05-03T03:30:05Z,42.805,6.029,13.2983,4.60011,2470.156,2020-5-03T05:30:46Z
2020-05-03T03:33:09Z,42.805,6.029,13.2980,4.60021,2470.11,2020-5-03T05:33:50Z
2020-05-03T03:36:12Z,42.805,6.029,13.2978,4.60003,2470.11,2020-5-03T05:36:53Z
2020-05-03T03:39:15Z,42.805,6.029,13.2979,4.59998,2470.087,2020-5-03T05:39:56Z
2020-05-03T03:42:19Z,42.805,6.029,13.2974,4.60034,2470.11,2020-5-03T05:43:00Z
2020-05-03T03:45:22Z,42.805,6.029,13.2990,4.60012,2470.11,2020-5-03T05:46:03Z
2020-05-03T03:48:25Z,42.805,6.029,13.2991,4.60014,2470.1,2020-5-03T05:49:06Z
2020-05-03T03:51:28Z,42.805,6.029,13.2990,4.60039,2470.11,2020-5-03T05:52:09Z
2020-05-03T03:54:32Z,42.805,6.029,13.2979,4.60014,2470.124,2020-5-03T05:55:13Z
2020-05-03T03:57:35Z,42.805,6.029,13.2982,4.60008,2470.124,2020-5-03T05:58:16Z
2020-05-03T04:00:38Z,42.805,6.029,13.2976,4.60028,2470.156,2020-5-03T06:01:19Z
2020-05-03T04:03:41Z,42.805,6.029,13.2998,4.60027,2470.11,2020-5-03T06:04:22Z
2020-05-03T04:06:45Z,42.805,6.029,13.2978,4.60038,2470.124,2020-5-03T06:07:26Z
2020-05-03T04:09:48Z,42.805,6.029,13.2995,4.60041,2470.133,2020-5-03T06:10:29Z
2020-05-03T04:12:51Z,42.805,6.029,13.2984,4.60009,2470.133,2020-5-03T06:13:32Z
2020-05-03T04:15:55Z,42.805,6.029,13.2990,4.60020,2470.124,2020-5-03T06:16:36Z
2020-05-03T04:18:58Z,42.805,6.029,13.3003,4.60020,2470.11,2020-5-03T06:19:39Z
2020-05-03T04:22:01Z,42.805,6.029,13.2979,4.60042,2470.11,2020-5-03T06:22:42Z
2020-05-03T04:25:04Z,42.805,6.029,13.2977,4.60015,2470.124,2020-5-03T06:25:45Z
2020-05-03T04:28:07Z,42.805,6.029,13.2980,4.60001,2470.147,2020-5-03T06:28:48Z
2020-05-03T04:31:11Z,42.805,6.029,13.2979,4.60004,2470.147,2020-5-03T06:31:52Z
2020-05-03T04:34:14Z,42.805,6.029,13.2978,4.59999,2470.11,2020-5-03T06:34:55Z
2020-05-03T04:37:17Z,42.805,6.029,13.2979,4.60010,2470.171,2020-5-03T06:37:58Z
2020-05-03T04:40:20Z,42.805,6.029,13.2992,4.60036,2470.133,2020-5-03T06:41:01Z
2020-05-03T04:43:24Z,42.805,6.029,13.2998,4.60015,2470.133,2020-5-03T06:44:05Z
2020-05-03T04:46:27Z,42.805,6.029,13.2990,4.60029,2470.11,2020-5-03T06:47:08Z
2020-05-03T04:49:30Z,42.805,6.029,13.2996,4.60015,2470.133,2020-5-03T06:50:11Z
2020-05-03T04:52:33Z,42.805,6.029,13.2980,4.60013,2470.11,2020-5-03T06:53:14Z
2020-05-03T04:55:37Z,42.805,6.029,13.2980,4.60009,2470.133,2020-5-03T06:56:18Z
2020-05-03T04:58:40Z,42.805,6.029,13.2974,4.60003,2470.133,2020-5-03T06:59:21Z
2020-05-03T05:01:43Z,42.805,6.029,13.2976,4.60002,2470.147,2020-5-03T07:02:24Z
2020-05-03T05:04:46Z,42.805,6.029,13.2979,4.59999,2470.11,2020-5-03T07:05:27Z
2020-05-03T05:07:50Z,42.805,6.029,13.2983,4.60027,2470.11,2020-5-03T07:08:31Z
2020-05-03T05:10:53Z,42.805,6.029,13.2981,4.60016,2470.133,2020-5-03T07:11:34Z
2020-05-03T05:13:56Z,42.805,6.029,13.2978,4.60006,2470.1,2020-5-03T07:14:37Z
2020-05-03T05:17:00Z,42.805,6.029,13.2978,4.60017,2470.171,2020-5-03T07:17:41Z
2020-05-03T05:20:03Z,42.805,6.029,13.2976,4.60010,2470.087,2020-5-03T07:20:44Z
2020-05-03T05:23:06Z,42.805,6.029,13.2983,4.60026,2470.147,2020-5-03T07:23:47Z
2020-05-03T05:26:10Z,42.805,6.029,13.2976,4.60017,2470.124,2020-5-03T07:26:51Z
2020-05-03T05:29:13Z,42.805,6.029,13.2973,4.60014,2470.063,2020-5-03T07:29:54Z
2020-05-03T05:32:16Z,42.805,6.029,13.2986,4.60021,2470.11,2020-5-03T07:32:57Z
2020-05-03T05:35:19Z,42.805,6.029,13.2987,4.60022,2470.11,2020-5-03T07:36:00Z
2020-05-03T05:38:23Z,42.805,6.029,13.2980,4.60016,2470.11,2020-5-03T07:39:04Z
2020-05-03T05:41:26Z,42.805,6.029,13.2980,4.60029,2470.124,2020-5-03T07:42:07Z
2020-05-03T05:44:29Z,42.805,6.029,13.2975,4.60024,2470.1,2020-5-03T07:45:10Z
2020-05-03T05:47:33Z,42.805,6.029,13.2979,4.60022,2470.11,2020-5-03T07:48:14Z
2020-05-03T05:50:36Z,42.805,6.029,13.2979,4.60008,2470.133,2020-5-03T07:51:17Z
2020-05-03T05:53:39Z,42.805,6.029,13.2981,4.60008,2470.087,2020-5-03T07:54:20Z
2020-05-03T05:56:42Z,42.805,6.029,13.2983,4.60028,2470.087,2020-5-03T07:57:23Z
2020-05-03T05:59:46Z,42.805,6.029,13.2987,4.60014,2470.147,2020-5-03T08:00:27Z
2020-05-03T06:02:49Z,42.805,6.029,13.2974,4.60004,2470.124,2020-5-03T08:03:30Z
2020-05-03T06:05:52Z,42.805,6.029,13.2974,4.60011,2470.124,2020-5-03T08:06:33Z
2020-05-03T06:08:55Z,42.805,6.029,13.2977,4.60027,2470.087,2020-5-03T08:09:36Z
2020-05-03T06:11:58Z,42.805,6.029,13.2978,4.60005,2470.11,2020-5-03T08:12:39Z
2020-05-03T06:15:02Z,42.805,6.029,13.2982,4.60000,2470.1,2020-5-03T08:15:43Z
2020-05-03T06:18:05Z,42.805,6.029,13.2979,4.60022,2470.11,2020-5-03T08:18:46Z
2020-05-03T06:21:08Z,42.805,6.029,13.2983,4.60041,2470.087,2020-5-03T08:21:49Z
2020-05-03T06:24:11Z,42.805,6.029,13.2990,4.60027,2470.1,2020-5-03T08:24:52Z
2020-05-03T06:27:15Z,42.805,6.029,13.2986,4.60041,2470.087,2020-5-03T08:27:56Z
2020-05-03T06:30:18Z,42.805,6.029,13.2981,4.60008,2470.133,2020-5-03T08:30:59Z
2020-05-03T06:33:21Z,42.805,6.029,13.2983,4.60004,2470.087,2020-5-03T08:34:02Z
2020-05-03T06:36:24Z,42.805,6.029,13.2975,4.59996,2470.087,2020-5-03T08:37:05Z
2020-05-03T06:39:28Z,42.805,6.029,13.2985,4.60001,2470.087,2020-5-03T08:40:09Z
2020-05-03T06:42:31Z,42.805,6.029,13.2979,4.59996,2470.077,2020-5-03T08:43:12Z
2020-05-03T06:45:34Z,42.805,6.029,13.2986,4.60004,2470.1,2020-5-03T08:46:15Z
2020-05-03T06:48:37Z,42.805,6.029,13.2991,4.60023,2470.077,2020-5-03T08:49:18Z
2020-05-03T06:51:41Z,42.805,6.029,13.2992,4.60017,2470.04,2020-5-03T08:52:22Z
2020-05-03T06:54:44Z,42.805,6.029,13.2982,4.60000,2470.077,2020-5-03T08:55:25Z
2020-05-03T06:57:47Z,42.805,6.029,13.2974,4.59996,2470.1,2020-5-03T08:58:28Z
2020-05-03T07:00:50Z,42.805,6.029,13.2978,4.59994,2470.053,2020-5-03T09:01:31Z
2020-05-03T07:03:54Z,42.805,6.029,13.2977,4.60008,2470.063,2020-5-03T09:04:35Z
2020-05-03T07:06:57Z,42.805,6.029,13.2978,4.60001,2470.04,2020-5-03T09:07:38Z
2020-05-03T07:10:00Z,42.805,6.029,13.2983,4.60004,2470.063,2020-5-03T09:10:41Z
2020-05-03T07:13:03Z,42.805,6.029,13.2975,4.59999,2470.04,2020-5-03T09:13:44Z
2020-05-03T07:16:06Z,42.805,6.029,13.2991,4.60005,2470.04,2020-5-03T09:16:47Z
2020-05-03T07:19:10Z,42.805,6.029,13.2979,4.60007,2470.053,2020-5-03T09:19:51Z
2020-05-03T07:22:13Z,42.805,6.029,13.2978,4.60019,2470.04,2020-5-03T09:22:54Z
2020-05-03T07:25:16Z,42.805,6.029,13.2979,4.60003,2470.03,2020-5-03T09:25:57Z
2020-05-03T07:28:19Z,42.805,6.029,13.2974,4.60028,2470.077,2020-5-03T09:29:00Z
2020-05-03T07:31:23Z,42.805,6.029,13.2978,4.59986,2470.053,2020-5-03T09:32:04Z
2020-05-03T07:34:26Z,42.805,6.029,13.2982,4.60001,2470.063,2020-5-03T09:35:07Z
2020-05-03T07:37:29Z,42.805,6.029,13.2983,4.60010,2470.03,2020-5-03T09:38:10Z
2020-05-03T07:40:32Z,42.805,6.029,13.2971,4.59999,2470.03,2020-5-03T09:41:13Z
2020-05-03T07:43:35Z,42.805,6.029,13.2980,4.60007,2470.053,2020-5-03T09:44:16Z
2020-05-03T07:46:39Z,42.805,6.029,13.2982,4.60007,2470.017,2020-5-03T09:47:20Z
2020-05-03T07:49:42Z,42.805,6.029,13.2979,4.60007,2470.03,2020-5-03T09:50:23Z
2020-05-03T07:52:45Z,42.805,6.029,13.2978,4.60013,2470.04,2020-5-03T09:53:26Z
2020-05-03T07:55:49Z,42.805,6.029,13.2977,4.60009,2470.03,2020-5-03T09:56:30Z
2020-05-03T07:58:52Z,42.805,6.029,13.2979,4.59996,2470.017,2020-5-03T09:59:33Z
2020-05-03T08:01:55Z,42.805,6.029,13.2979,4.59999,2470.03,2020-5-03T10:02:36Z
2020-05-03T08:04:58Z,42.805,6.029,13.2982,4.60004,2469.993,2020-5-03T10:05:39Z
2020-05-03T08:08:02Z,42.805,6.029,13.2993,4.60022,2470.017,2020-5-03T10:08:43Z
2020-05-03T08:11:05Z,42.805,6.029,13.2980,4.59997,2469.993,2020-5-03T10:11:46Z
2020-05-03T08:14:08Z,42.805,6.029,13.2982,4.60026,2469.993,2020-5-03T10:14:49Z
2020-05-03T08:17:11Z,42.805,6.029,13.2977,4.59996,2470.007,2020-5-03T10:17:52Z
2020-05-03T08:20:15Z,42.805,6.029,13.2981,4.59999,2470.017,2020-5-03T10:20:56Z
2020-05-03T08:23:18Z,42.805,6.029,13.2983,4.60010,2469.993,2020-5-03T10:23:59Z
2020-05-03T08:26:21Z,42.805,6.029,13.2967,4.59986,2469.993,2020-5-03T10:27:02Z
2020-05-03T08:29:24Z,42.805,6.029,13.2976,4.60008,2470.03,2020-5-03T10:30:05Z
2020-05-03T08:32:27Z,42.805,6.029,13.2979,4.60018,2469.993,2020-5-03T10:33:08Z
2020-05-03T08:35:31Z,42.805,6.029,13.2983,4.60005,2470.007,2020-5-03T10:36:12Z
2020-05-03T08:38:34Z,42.805,6.029,13.2984,4.60003,2470.007,2020-5-03T10:39:15Z
2020-05-03T08:41:37Z,42.805,6.029,13.2973,4.60017,2470.053,2020-5-03T10:42:18Z
2020-05-03T08:44:40Z,42.805,6.029,13.2980,4.60007,2470.007,2020-5-03T10:45:21Z
2020-05-03T08:47:44Z,42.805,6.029,13.2982,4.59996,2469.984,2020-5-03T10:48:25Z
2020-05-03T08:50:47Z,42.805,6.029,13.2980,4.60016,2469.993,2020-5-03T10:51:28Z
2020-05-03T08:53:50Z,42.805,6.029,13.2985,4.60008,2469.993,2020-5-03T10:54:31Z
2020-05-03T08:56:53Z,42.805,6.029,13.2986,4.60011,2470.053,2020-5-03T10:57:34Z
2020-05-03T08:59:57Z,42.805,6.029,13.2975,4.60011,2469.984,2020-5-03T11:00:38Z
2020-05-03T09:03:00Z,42.805,6.029,13.2985,4.60001,2469.97,2020-5-03T11:03:41Z
2020-05-03T09:06:03Z,42.805,6.029,13.2983,4.60009,2470.017,2020-5-03T11:06:44Z
2020-05-03T09:09:06Z,42.805,6.029,13.2976,4.60003,2470.007,2020-5-03T11:09:47Z
2020-05-03T09:12:10Z,42.805,6.029,13.2976,4.59994,2469.984,2020-5-03T11:12:51Z
2020-05-03T09:15:13Z,42.805,6.029,13.2985,4.60015,2469.984,2020-5-03T11:15:54Z
2020-05-03T09:18:16Z,42.805,6.029,13.2982,4.60003,2469.984,2020-5-03T11:18:57Z
2020-05-03T09:21:19Z,42.805,6.029,13.2982,4.59993,2469.97,2020-5-03T11:22:00Z
2020-05-03T09:24:23Z,42.805,6.029,13.2974,4.60009,2469.984,2020-5-03T11:25:04Z
2020-05-03T09:27:26Z,42.805,6.029,13.2976,4.60006,2469.984,2020-5-03T11:28:07Z
2020-05-03T09:30:29Z,42.805,6.029,13.2972,4.59989,2469.947,2020-5-03T11:31:10Z
2020-05-03T09:33:33Z,42.805,6.029,13.2990,4.60001,2469.97,2020-5-03T11:34:14Z
2020-05-03T09:36:36Z,42.805,6.029,13.2979,4.60005,2469.947,2020-5-03T11:37:17Z
2020-05-03T09:39:39Z,42.805,6.029,13.2985,4.60009,2469.993,2020-5-03T11:40:20Z
2020-05-03T09:42:42Z,42.805,6.029,13.2975,4.60001,2469.923,2020-5-03T11:43:23Z
2020-05-03T09:45:46Z,42.805,6.029,13.2975,4.59999,2469.96,2020-5-03T11:46:27Z
2020-05-03T09:48:49Z,42.805,6.029,13.2975,4.59988,2469.947,2020-5-03T11:49:30Z
2020-05-03T09:51:52Z,42.805,6.029,13.2974,4.59984,2469.947,2020-5-03T11:52:33Z
2020-05-03T09:54:55Z,42.805,6.029,13.2982,4.59980,2469.947,2020-5-03T11:55:36Z
2020-05-03T09:57:59Z,42.805,6.029,13.2979,4.59988,2469.96,2020-5-03T11:58:40Z
2020-05-03T10:01:02Z,42.805,6.029,13.2973,4.59991,2469.96,2020-5-03T12:01:43Z
2020-05-03T10:04:05Z,42.805,6.029,13.2974,4.59994,2469.937,2020-5-03T12:04:46Z
2020-05-03T10:07:09Z,42.805,6.029,13.2969,4.59981,2469.96,2020-5-03T12:07:50Z
2020-05-03T10:10:12Z,42.805,6.029,13.2974,4.59990,2469.96,2020-5-03T12:10:53Z
2020-05-03T10:13:15Z,42.805,6.029,13.2976,4.59984,2469.97,2020-5-03T12:13:56Z
2020-05-03T10:16:18Z,42.805,6.029,13.2978,4.60013,2469.923,2020-5-03T12:16:59Z
2020-05-03T10:19:22Z,42.805,6.029,13.2982,4.59993,2469.947,2020-5-03T12:20:03Z
2020-05-03T10:22:25Z,42.805,6.029,13.2975,4.59996,2469.96,2020-5-03T12:23:06Z
2020-05-03T10:25:28Z,42.805,6.029,13.2982,4.60003,2469.937,2020-5-03T12:26:09Z
2020-05-03T10:28:32Z,42.805,6.029,13.2974,4.60003,2469.947,2020-5-03T12:29:13Z
2020-05-03T10:31:35Z,42.805,6.029,13.2982,4.60021,2469.947,2020-5-03T12:32:16Z
2020-05-03T10:34:38Z,42.805,6.029,13.2974,4.59988,2469.923,2020-5-03T12:35:19Z
2020-05-03T10:37:41Z,42.805,6.029,13.2985,4.60003,2469.937,2020-5-03T12:38:22Z
2020-05-03T10:40:45Z,42.805,6.029,13.2971,4.59996,2469.937,2020-5-03T12:41:26Z
2020-05-03T10:43:48Z,42.805,6.029,13.2980,4.59991,2469.923,2020-5-03T12:44:29Z
2020-05-03T10:46:51Z,42.805,6.029,13.2992,4.60003,2469.947,2020-5-03T12:47:32Z
2020-05-03T10:49:54Z,42.805,6.029,13.2969,4.59989,2469.947,2020-5-03T12:50:35Z
2020-05-03T10:52:58Z,42.805,6.029,13.2976,4.59995,2469.96,2020-5-03T12:53:39Z
2020-05-03T10:56:01Z,42.805,6.029,13.2976,4.60004,2469.947,2020-5-03T12:56:42Z
2020-05-03T10:59:04Z,42.805,6.029,13.2981,4.59986,2469.947,2020-5-03T12:59:45Z
2020-05-03T11:02:08Z,42.805,6.029,13.2976,4.59987,2469.9,2020-5-03T13:02:49Z
2020-05-03T11:05:11Z,42.805,6.029,13.2979,4.60011,2469.9,2020-5-03T13:05:52Z
2020-05-03T11:08:14Z,42.805,6.029,13.2978,4.59992,2469.96,2020-5-03T13:08:55Z
2020-05-03T11:11:17Z,42.805,6.029,13.2979,4.59998,2469.96,2020-5-03T13:11:58Z
2020-05-03T11:14:21Z,42.805,6.029,13.2980,4.59986,2469.923,2020-5-03T13:15:02Z
2020-05-03T11:17:24Z,42.805,6.029,13.2977,4.60002,2469.923,2020-5-03T13:18:05Z
2020-05-03T11:20:27Z,42.805,6.029,13.2973,4.59981,2469.937,2020-5-03T13:21:08Z
2020-05-03T11:23:30Z,42.805,6.029,13.2974,4.59988,2469.937,2020-5-03T13:24:11Z
2020-05-03T11:26:34Z,42.805,6.029,13.2978,4.59991,2469.984,2020-5-03T13:27:15Z
2020-05-03T11:29:37Z,42.805,6.029,13.2976,4.59984,2469.923,2020-5-03T13:30:18Z
2020-05-03T11:32:40Z,42.805,6.029,13.2976,4.59985,2469.937,2020-5-03T13:33:21Z
2020-05-03T11:35:43Z,42.805,6.029,13.2973,4.59983,2469.933,2020-5-03T13:36:24Z
2020-05-03T11:38:47Z,42.805,6.029,13.2983,4.60001,2469.984,2020-5-03T13:39:28Z
2020-05-03T11:41:50Z,42.805,6.029,13.2976,4.59994,2469.923,2020-5-03T13:42:31Z
2020-05-03T11:44:53Z,42.805,6.029,13.2988,4.60003,2469.923,2020-5-03T13:45:34Z
2020-05-03T11:47:56Z,42.805,6.029,13.2983,4.59996,2469.937,2020-5-03T13:48:37Z
2020-05-03T11:50:59Z,42.805,6.029,13.2973,4.59986,2469.947,2020-5-03T13:51:40Z
2020-05-03T11:54:03Z,42.805,6.029,13.2973,4.59981,2469.937,2020-5-03T13:54:44Z
2020-05-03T11:57:06Z,42.805,6.029,13.2982,4.60006,2469.96,2020-5-03T13:57:47Z
2020-05-03T12:00:09Z,42.805,6.029,13.2977,4.59987,2469.937,2020-5-03T14:00:50Z
2020-05-03T12:03:13Z,42.805,6.029,13.2973,4.59981,2469.937,2020-5-03T14:03:54Z
2020-05-03T12:06:16Z,42.805,6.029,13.2979,4.59999,2469.923,2020-5-03T14:06:57Z
2020-05-03T12:09:19Z,42.805,6.029,13.2976,4.59993,2469.947,2020-5-03T14:10:00Z
2020-05-03T12:12:22Z,42.805,6.029,13.2978,4.59984,2469.947,2020-5-03T14:13:03Z
2020-05-03T12:15:26Z,42.805,6.029,13.2975,4.59994,2469.937,2020-5-03T14:16:07Z
2020-05-03T12:18:29Z,42.805,6.029,13.2974,4.59981,2469.937,2020-5-03T14:19:10Z
2020-05-03T12:21:32Z,42.805,6.029,13.2976,4.59996,2469.96,2020-5-03T14:22:13Z
2020-05-03T12:24:35Z,42.805,6.029,13.2976,4.60006,2469.923,2020-5-03T14:25:16Z
2020-05-03T12:27:39Z,42.805,6.029,13.2970,4.59986,2469.984,2020-5-03T14:28:20Z
2020-05-03T12:30:42Z,42.805,6.029,13.2973,4.59989,2470.007,2020-5-03T14:31:23Z
2020-05-03T12:33:45Z,42.805,6.029,13.2993,4.59999,2469.97,2020-5-03T14:34:26Z
2020-05-03T12:36:48Z,42.805,6.029,13.2971,4.59988,2469.97,2020-5-03T14:37:29Z
2020-05-03T12:39:52Z,42.805,6.029,13.2979,4.60007,2469.97,2020-5-03T14:40:33Z
2020-05-03T12:42:55Z,42.805,6.029,13.2974,4.60009,2469.97,2020-5-03T14:43:36Z
2020-05-03T12:45:58Z,42.805,6.029,13.2971,4.59986,2469.984,2020-5-03T14:46:39Z
2020-05-03T12:49:01Z,42.805,6.029,13.2972,4.59994,2469.96,2020-5-03T14:49:42Z
2020-05-03T12:52:05Z,42.805,6.029,13.2976,4.59991,2469.97,2020-5-03T14:52:46Z
2020-05-03T12:55:08Z,42.805,6.029,13.2976,4.59999,2469.947,2020-5-03T14:55:49Z
2020-05-03T12:58:11Z,42.805,6.029,13.2975,4.59983,2469.984,2020-5-03T14:58:52Z
2020-05-03T13:01:15Z,42.805,6.029,13.2979,4.60005,2469.97,2020-5-03T15:01:56Z
2020-05-03T13:04:18Z,42.805,6.029,13.2984,4.60011,2469.97,2020-5-03T15:04:59Z
2020-05-03T13:07:21Z,42.805,6.029,13.2986,4.60003,2469.97,2020-5-03T15:08:02Z
2020-05-03T13:10:24Z,42.805,6.029,13.2981,4.59996,2469.97,2020-5-03T15:11:05Z
2020-05-03T13:13:28Z,42.805,6.029,13.2976,4.59986,2470.007,2020-5-03T15:14:09Z
2020-05-03T13:16:31Z,42.805,6.029,13.2975,4.59982,2469.97,2020-5-03T15:17:12Z
2020-05-03T13:19:34Z,42.805,6.029,13.2971,4.59988,2469.997,2020-5-03T15:20:15Z
2020-05-03T13:22:37Z,42.805,6.029,13.2977,4.59983,2469.993,2020-5-03T15:23:18Z
2020-05-03T13:25:41Z,42.805,6.029,13.2974,4.59987,2469.993,2020-5-03T15:26:22Z
2020-05-03T13:28:44Z,42.805,6.029,13.2979,4.59999,2469.993,2020-5-03T15:29:25Z
2020-05-03T13:31:47Z,42.805,6.029,13.2974,4.59994,2470.007,2020-5-03T15:32:28Z
2020-05-03T13:34:50Z,42.805,6.029,13.2982,4.60005,2469.993,2020-5-03T15:35:31Z
2020-05-03T13:37:54Z,42.805,6.029,13.2992,4.60017,2470.007,2020-5-03T15:38:35Z
2020-05-03T13:40:57Z,42.805,6.029,13.2990,4.60029,2470.007,2020-5-03T15:41:38Z
2020-05-03T13:44:00Z,42.805,6.029,13.2991,4.60021,2469.993,2020-5-03T15:44:41Z
2020-05-03T13:47:03Z,42.805,6.029,13.2986,4.60011,2470.007,2020-5-03T15:47:44Z
2020-05-03T13:50:06Z,42.805,6.029,13.2979,4.60021,2470.007,2020-5-03T15:50:47Z
2020-05-03T13:53:10Z,42.805,6.029,13.2993,4.60014,2469.993,2020-5-03T15:53:51Z
2020-05-03T13:56:13Z,42.805,6.029,13.2979,4.60003,2469.97,2020-5-03T15:56:54Z
2020-05-03T13:59:16Z,42.805,6.029,13.2982,4.60014,2470.03,2020-5-03T15:59:57Z
2020-05-03T14:02:19Z,42.805,6.029,13.2971,4.59994,2470.007,2020-5-03T16:03:00Z
2020-05-03T14:05:23Z,42.805,6.029,13.2988,4.60022,2470.017,2020-5-03T16:06:04Z
2020-05-03T14:08:26Z,42.805,6.029,13.2994,4.60021,2470.03,2020-5-03T16:09:07Z
2020-05-03T14:11:29Z,42.805,6.029,13.2975,4.59990,2470.03,2020-5-03T16:12:10Z
2020-05-03T14:14:32Z,42.805,6.029,13.2979,4.59988,2469.993,2020-5-03T16:15:13Z
2020-05-03T14:17:36Z,42.805,6.029,13.2973,4.59988,2469.993,2020-5-03T16:18:17Z
2020-05-03T14:20:39Z,42.805,6.029,13.2975,4.59992,2469.993,2020-5-03T16:21:20Z
2020-05-03T14:23:42Z,42.805,6.029,13.2979,4.60011,2470.017,2020-5-03T16:24:23Z
2020-05-03T14:26:45Z,42.805,6.029,13.2983,4.60023,2470.017,2020-5-03T16:27:26Z
2020-05-03T14:29:49Z,42.805,6.029,13.2996,4.60009,2470.04,2020-5-03T16:30:30Z
2020-05-03T14:32:52Z,42.805,6.029,13.2979,4.60007,2470.04,2020-5-03T16:33:33Z
2020-05-03T14:35:55Z,42.805,6.029,13.2981,4.60009,2470.007,2020-5-03T16:36:36Z
2020-05-03T14:38:58Z,42.805,6.029,13.2978,4.60019,2470.017,2020-5-03T16:39:39Z
2020-05-03T14:42:02Z,42.805,6.029,13.2990,4.60022,2470.017,2020-5-03T16:42:43Z
2020-05-03T14:45:05Z,42.805,6.029,13.2983,4.60005,2470.053,2020-5-03T16:45:46Z
2020-05-03T14:48:08Z,42.805,6.029,13.2984,4.60026,2470.007,2020-5-03T16:48:49Z
2020-05-03T14:51:11Z,42.805,6.029,13.2982,4.60018,2470.017,2020-5-03T16:51:52Z
2020-05-03T14:54:15Z,42.805,6.029,13.2995,4.60015,2470.007,2020-5-03T16:54:56Z
2020-05-03T14:57:18Z,42.805,6.029,13.2971,4.59986,2470.017,2020-5-03T16:57:59Z
2020-05-03T15:00:21Z,42.805,6.029,13.2982,4.60011,2470.017,2020-5-03T17:01:02Z
2020-05-03T15:03:24Z,42.805,6.029,13.2983,4.59994,2470.04,2020-5-03T17:04:05Z
2020-05-03T15:06:28Z,42.805,6.029,13.2981,4.59994,2470.017,2020-5-03T17:07:09Z
2020-05-03T15:09:31Z,42.805,6.029,13.2979,4.60000,2469.993,2020-5-03T17:10:12Z
2020-05-03T15:12:35Z,42.805,6.029,13.2982,4.59997,2470.053,2020-5-03T17:13:16Z
2020-05-03T15:15:38Z,42.805,6.029,13.2979,4.60001,2470.053,2020-5-03T17:16:19Z